QPF
0.00 0.00 0.00 0.00 0.00 0.00 0.00 0.00 0.00 0.00 0.00 0.02 0.02 0.02 0.01 0.02 0.04 0.04 0.01 0.02 0.00 0.01 0.01 0.00 0.00 0.00 0.00 0.00 0.00 0.00 0.00 0.00 0.00 0.00 0.00 0.00 0.00 0.00 0.00 0.00 0.00 0.00 0.00
0.00 0.00 0.00 0.00 0.00 0.00 0.00 0.00 0.00 0.00 0.00 0.00 0.01 0.00 0.00 0.00 0.00 0.01 0.00 0.00 0.00 0.00 0.00 0.00 0.00 0.00 0.00 0.00 0.00 0.00 0.00 0.00 0.00 0.00 0.00 0.00 0.00 0.00 0.00 0.00 0.00 0.00 0.00
0.00 0.00 0.00 0.00 0.00 0.00 0.00 0.00 0.00 0.00 0.00 0.00 0.00 0.00 0.00 0.00 0.00 0.00 0.00 0.00 0.00 0.00 0.00 0.00 0.00 0.00 0.00 0.00 0.00 0.00 0.00 0.00 0.00 0.00 0.00 0.00 0.00 0.00 0.00 0.00 0.00 0.00 0.00
0.00 0.00 0.00 0.00 0.00 0.00 0.00 0.00 0.00 0.00 0.00 0.00 0.00 0.00 0.00 0.00 0.00 0.00 0.00 0.00 0.00 0.00 0.00 0.00 0.00 0.00 0.00 0.00 0.00 0.00 0.00 0.00 0.00 0.00 0.00 0.00 0.00 0.00 0.00 0.00 0.00 0.00 0.00
0.00 0.01 0.01 0.01 0.00 0.00 0.00 0.01 0.00 0.01 0.00 0.00 0.00 0.00 0.00 0.00 0.00 0.00 0.00 0.00 0.00 0.00 0.00 0.00 0.00 0.00 0.00 0.00 0.00 0.00 0.00 0.00 0.00 0.00 0.00 0.00 0.00 0.00 0.00 0.00 0.00 0.00 0.00
0.10 0.25 0.18 0.04 0.02 0.01 0.06 0.07 0.11 0.06 0.04 0.04 0.00 0.00 0.00 0.00 0.00 0.00 0.00 0.00 0.00 0.00 0.00 0.00 0.00 0.00 0.00 0.00 0.00 0.00 0.00 0.00 0.00 0.00 0.00 0.00 0.00 0.00 0.00 0.00 0.00 0.00 0.00
0.09 0.02 0.00 0.02 0.08 0.12 0.16 0.16 0.13 0.10 0.09 0.07 0.07 0.03 0.00 0.00 0.00 0.00 0.00 0.00 0.00 0.00 0.00 0.01 0.00 0.00 0.00 0.00 0.00 0.00 0.00 0.00 0.00 0.00 0.00 0.00 0.00 0.00 0.00 0.00 0.00 0.00 0.00
0.00 0.00 0.00 0.00 0.03 0.20 0.22 0.20 0.23 0.21 0.13 0.08 0.04 0.08 0.07 0.04 0.03 0.01 0.00 0.00 0.01 0.03 0.03 0.00 0.00 0.00 0.01 0.01 0.02 0.01 0.00 0.00 0.00 0.00 0.00 0.00 0.00 0.00 0.00 0.00 0.00 0.00 0.00
0.00 0.00 0.00 0.00 0.03 0.07 0.11 0.16 0.17 0.09 0.04 0.03 0.03 0.06 0.03 0.02 0.02 0.02 0.05 0.05 0.01 0.05 0.04 0.02 0.00 0.03 0.04 0.06 0.02 0.01 0.00 0.00 0.00 0.00 0.00 0.00 0.00 0.00 0.00 0.00 0.00 0.00 0.00
0.00 0.00 0.00 0.00 0.00 0.00 0.00 0.01 0.02 0.02 0.02 0.02 0.01 0.01 0.02 0.01 0.03 0.02 0.11 0.18 0.06 0.14 0.07 0.02 0.02 0.10 0.09 0.04 0.01 0.00 0.00 0.00 0.00 0.00 0.00 0.00 0.00 0.00 0.00 0.00 0.00 0.00 0.00
0.00 0.00 0.00 0.00 0.00 0.00 0.00 0.00 0.00 0.00 0.00 0.02 0.03 0.08 0.05 0.04 0.06 0.06 0.28 0.14 0.18 0.14 0.10 0.08 0.02 0.01 0.06 0.07 0.02 0.00 0.00 0.00 0.00 0.00 0.00 0.00 0.00 0.00 0.00 0.00 0.00 0.00 0.00
0.00 0.00 0.00 0.00 0.00 0.00 0.00 0.00 0.00 0.00 0.00 0.00 0.00 0.02 0.02 0.03 0.02 0.04 0.23 0.07 0.03 0.03 0.01 0.02 0.01 0.05 0.06 0.03 0.01 0.00 0.00 0.00 0.00 0.00 0.00 0.00 0.00 0.00 0.00 0.00 0.00 0.00 0.00
0.00 0.00 0.00 0.00 0.00 0.00 0.00 0.00 0.00 0.00 0.00 0.00 0.00 0.00 0.00 0.00 0.00 0.01 0.02 0.02 0.01 0.01 0.00 0.00 0.01 0.02 0.00 0.00 0.00 0.00 0.00 0.00 0.00 0.00 0.00 0.00 0.00 0.00 0.00 0.00 0.00 0.00 0.00
0.00 0.00 0.00 0.00 0.00 0.00 0.00 0.00 0.00 0.00 0.00 0.00 0.00 0.00 0.00 0.00 0.00 0.00 0.00 0.01 0.00 0.00 0.00 0.00 0.00 0.00 0.00 0.00 0.00 0.00 0.00 0.00 0.00 0.00 0.00 0.00 0.00 0.00 0.00 0.00 0.00 0.00 0.00
0.00 0.00 0.00 0.00 0.00 0.00 0.00 0.00 0.00 0.00 0.00 0.00 0.00 0.00 0.00 0.01 0.01 0.00 0.00 0.00 0.00 0.00 0.00 0.00 0.00 0.00 0.00 0.00 0.00 0.00 0.00 0.00 0.00 0.00 0.00 0.00 0.00 0.00 0.00 0.00 0.00 0.00 0.00
0.00 0.00 0.00 0.00 0.00 0.00 0.00 0.00 0.00 0.00 0.00 0.00 0.00 0.00 0.00 0.00 0.00 0.00 0.00 0.00 0.00 0.00 0.00 0.00 0.00 0.00 0.00 0.00 0.00 0.00 0.00 0.00 0.00 0.00 0.00 0.00 0.00 0.00 0.00 0.00 0.00 0.00 0.00
0.00 0.00 0.00 0.00 0.00 0.00 0.00 0.00 0.00 0.00 0.00 0.00 0.00 0.00 0.00 0.00 0.00 0.00 0.00 0.00 0.00 0.00 0.00 0.00 0.00 0.00 0.00 0.00 0.00 0.00 0.00 0.00 0.00 0.00 0.00 0.00 0.00 0.00 0.00 0.00 0.00 0.00 0.00
0.00 0.00 0.00 0.00 0.00 0.00 0.00 0.00 0.00 0.00 0.00 0.00 0.00 0.00 0.00 0.00 0.00 0.00 0.00 0.00 0.00 0.00 0.00 0.00 0.00 0.00 0.00 0.00 0.00 0.00 0.00 0.00 0.00 0.00 0.00 0.00 0.00 0.00 0.00 0.00 0.00 0.00 0.00
0.00 0.00 0.00 0.00 0.00 0.00 0.00 0.00 0.00 0.00 0.00 0.00 0.00 0.00 0.00 0.00 0.00 0.00 0.00 0.00 0.00 0.00 0.01 0.01 0.02 0.00 0.00 0.00 0.00 0.00 0.00 0.00 0.00 0.00 0.00 0.00 0.00 0.00 0.00 0.00 0.00 0.00 0.00
0.00 0.00 0.00 0.00 0.00 0.00 0.00 0.00 0.00 0.00 0.00 0.00 0.00 0.00 0.00 0.00 0.00 0.00 0.00 0.00 0.00 0.01 0.02 0.02 0.02 0.00 0.00 0.00 0.00 0.00 0.00 0.00 0.00 0.00 0.00 0.00 0.00 0.00 0.00 0.00 0.00 0.00 0.00
0.00 0.00 0.00 0.00 0.00 0.00 0.00 0.00 0.00 0.00 0.00 0.00 0.00 0.00 0.00 0.01 0.02 0.00 0.00 0.00 0.00 0.01 0.02 0.02 0.01 0.00 0.01 0.00 0.00 0.00 0.00 0.00 0.00 0.00 0.00 0.00 0.00 0.00 0.00 0.00 0.00 0.00 0.00
0.00 0.00 0.00 0.00 0.00 0.00 0.00 0.00 0.00 0.00 0.00 0.00 0.00 0.01 0.00 0.01 0.02 0.01 0.00 0.00 0.00 0.01 0.01 0.00 0.00 0.01 0.00 0.00 0.00 0.00 0.00 0.00 0.00 0.00 0.00 0.00 0.00 0.00 0.00 0.00 0.00 0.00 0.00
0.00 0.00 0.00 0.00 0.00 0.00 0.00 0.00 0.00 0.00 0.00 0.00 0.00 0.00 0.01 0.01 0.02 0.04 0.01 0.00 0.00 0.00 0.00 0.02 0.02 0.01 0.00 0.00 0.00 0.00 0.00 0.01 0.02 0.01 0.01 0.01 0.00 0.00 0.00 0.00 0.00 0.00 0.00
0.00 0.00 0.00 0.00 0.00 0.00 0.00 0.00 0.00 0.00 0.00 0.00 0.00 0.00 0.00 0.00 0.02 0.05 0.03 0.00 0.00 0.00 0.00 0.00 0.01 0.02 0.03 0.03 0.02 0.00 0.00 0.01 0.00 0.01 0.00 0.00 0.00 0.01 0.01 0.00 0.00 0.00 0.00
0.00 0.00 0.00 0.00 0.00 0.00 0.00 0.01 0.00 0.00 0.00 0.00 0.00 0.00 0.01 0.01 0.02 0.02 0.02 0.00 0.00 0.00 0.00 0.00 0.00 0.00 0.00 0.00 0.01 0.00 0.01 0.02 0.01 0.01 0.01 0.01 0.01 0.01 0.02 0.03 0.01 0.00 0.00
0.00 0.00 0.00 0.00 0.00 0.01 0.03 0.05 0.05 0.02 0.03 0.01 0.01 0.01 0.01 0.01 0.03 0.04 0.03 0.01 0.00 0.00 0.00 0.00 0.00 0.00 0.00 0.00 0.01 0.01 0.02 0.02 0.01 0.01 0.01 0.02 0.01 0.01 0.04 0.04 0.02 0.01 0.00
MSLP
1006.95 1007.33 1008.15 1008.69 1009.18 1009.81 1010.14 1010.20 1010.43 1010.76 1011.11 1011.77 1012.39 1012.81 1013.21 1013.72 1014.09 1014.52 1014.78 1014.76 1015.02 1015.36 1015.87 1016.21 1016.50 1016.72 1016.68 1016.69 1016.86 1016.99 1017.05 1016.97 1017.17 1017.43 1017.55 1018.47 1019.04 1019.56 1019.93 1020.53 1021.23 1021.67 1021.93
1006.05 1006.76 1007.19 1007.84 1008.34 1008.83 1009.44 1009.55 1009.93 1010.25 1010.66 1011.13 1011.63 1012.31 1012.81 1013.30 1013.66 1014.09 1014.42 1014.50 1014.80 1015.11 1015.46 1015.88 1016.24 1016.48 1016.64 1016.69 1016.80 1016.81 1016.93 1016.94 1017.27 1017.92 1018.19 1018.46 1018.90 1019.37 1019.68 1020.14 1020.28 1020.73 1021.68
1005.32 1006.12 1006.70 1007.28 1007.79 1008.18 1008.78 1009.22 1009.37 1009.83 1010.26 1010.68 1011.17 1011.65 1012.12 1012.51 1012.96 1013.31 1013.75 1014.15 1014.28 1014.60 1014.91 1015.30 1015.82 1016.19 1016.23 1016.26 1016.29 1016.41 1016.50 1016.70 1017.04 1017.61 1018.41 1018.44 1018.80 1019.40 1019.92 1019.90 1020.04 1020.11 1020.82
1004.89 1005.37 1006.11 1006.70 1007.12 1007.49 1007.87 1008.49 1008.98 1009.36 1009.73 1010.22 1010.75 1011.11 1011.49 1011.91 1012.33 1012.62 1012.88 1013.30 1013.68 1013.88 1014.16 1014.49 1014.96 1015.42 1015.88 1016.17 1016.32 1016.44 1016.58 1016.83 1017.20 1017.63 1017.96 1018.48 1018.48 1018.81 1019.54 1020.22 1020.29 1020.07 1020.60
1005.23 1005.52 1006.49 1006.89 1007.15 1007.41 1007.63 1007.84 1008.43 1008.83 1009.23 1009.53 1010.02 1010.54 1010.94 1011.30 1011.61 1011.93 1012.14 1012.46 1012.86 1013.21 1013.44 1013.76 1014.26 1014.68 1015.05 1015.34 1015.63 1015.82 1016.18 1016.53 1016.82 1017.43 1017.93 1018.17 1018.35 1018.67 1018.85 1019.48 1020.28 1020.20 1019.88
1005.84 1006.46 1008.01 1007.71 1007.87 1008.11 1008.20 1007.88 1008.35 1008.96 1008.96 1009.38 1009.58 1009.78 1010.09 1010.23 1010.37 1010.80 1011.16 1011.54 1012.04 1012.53 1012.92 1013.17 1013.46 1013.95 1014.27 1014.74 1015.15 1015.28 1015.15 1015.45 1016.02 1016.58 1016.91 1017.62 1017.89 1018.15 1018.69 1018.89 1019.07 1019.84 1020.10
1006.69 1006.41 1006.31 1007.76 1007.41 1009.08 1008.78 1008.92 1008.85 1008.76 1008.78 1009.18 1009.28 1009.46 1009.45 1009.58 1009.88 1009.95 1010.23 1010.55 1010.98 1011.43 1011.90 1012.29 1012.59 1013.07 1013.68 1014.40 1014.89 1015.21 1015.45 1015.36 1015.46 1015.96 1016.59 1016.54 1016.69 1016.99 1017.69 1018.39 1018.77 1018.63 1019.21
1006.27 1006.59 1007.03 1006.89 1008.56 1009.13 1007.69 1007.17 1007.76 1008.82 1008.45 1008.37 1008.57 1008.66 1008.78 1008.75 1008.97 1009.28 1009.63 1009.89 1010.12 1010.43 1010.83 1011.23 1011.72 1012.21 1012.92 1013.74 1014.47 1014.79 1015.07 1015.30 1015.54 1015.08 1016.01 1016.43 1016.34 1015.84 1016.48 1017.37 1018.05 1018.71 1018.68
1006.35 1006.54 1006.54 1006.90 1007.71 1007.75 1007.43 1006.27 1008.72 1009.06 1007.86 1007.97 1007.92 1007.98 1007.94 1007.78 1007.97 1008.52 1009.10 1009.18 1009.25 1009.58 1009.96 1010.59 1010.91 1011.47 1011.91 1013.00 1014.26 1015.02 1015.25 1015.32 1015.22 1015.24 1015.44 1016.13 1016.01 1015.91 1015.61 1016.58 1017.85 1018.63 1019.07
1005.08 1005.66 1006.20 1006.79 1006.85 1006.45 1006.65 1006.83 1007.45 1007.68 1007.34 1007.05 1007.24 1007.22 1006.97 1006.86 1007.02 1007.33 1008.01 1008.72 1008.84 1009.06 1009.22 1009.56 1010.10 1010.99 1011.93 1012.80 1013.48 1014.37 1014.88 1014.68 1014.89 1015.07 1015.54 1015.85 1015.78 1015.79 1015.89 1016.17 1017.11 1018.29 1018.62
1004.57 1004.94 1005.17 1005.73 1006.06 1006.22 1006.30 1006.60 1006.94 1007.08 1006.76 1006.50 1006.56 1006.79 1006.56 1006.26 1006.41 1006.88 1007.56 1007.93 1007.73 1008.47 1008.93 1009.62 1009.99 1010.81 1011.43 1012.16 1012.67 1013.44 1013.84 1014.24 1014.26 1014.48 1015.06 1015.37 1015.37 1015.39 1015.72 1015.84 1016.62 1017.56 1017.93
1004.28 1005.17 1005.45 1005.13 1005.41 1005.80 1006.04 1006.22 1006.45 1006.48 1006.46 1006.38 1006.38 1006.09 1005.84 1005.82 1006.19 1006.73 1007.05 1007.30 1007.13 1007.96 1008.63 1009.08 1009.67 1010.50 1011.14 1011.61 1012.35 1012.79 1013.51 1013.89 1013.95 1014.31 1014.63 1014.87 1015.14 1015.03 1015.29 1015.42 1016.14 1016.96 1017.35
1004.75 1004.82 1005.49 1005.19 1004.86 1005.12 1005.51 1005.71 1005.94 1005.94 1005.99 1006.00 1006.00 1005.63 1005.18 1005.47 1006.00 1006.63 1006.97 1007.00 1007.19 1007.58 1008.11 1008.57 1009.25 1010.16 1010.89 1011.63 1012.19 1012.74 1013.21 1013.38 1013.55 1013.60 1013.96 1014.34 1014.62 1015.00 1015.03 1015.11 1015.60 1016.74 1017.10
1004.57 1004.93 1005.28 1005.28 1004.79 1004.93 1005.16 1005.26 1005.15 1005.08 1004.86 1004.90 1005.23 1005.38 1005.50 1005.70 1006.29 1006.74 1007.12 1007.18 1007.37 1007.62 1007.94 1008.34 1008.91 1009.69 1010.53 1011.11 1011.83 1012.28 1012.58 1012.78 1013.06 1013.38 1013.72 1014.03 1014.37 1014.71 1015.01 1014.70 1015.37 1016.71 1017.15
1004.17 1004.71 1004.84 1004.77 1004.36 1004.37 1004.44 1004.21 1004.17 1004.09 1004.17 1004.29 1004.33 1004.74 1004.95 1005.15 1005.60 1005.92 1006.43 1006.81 1006.82 1007.41 1008.12 1008.59 1009.06 1009.68 1010.50 1011.01 1011.35 1011.56 1012.10 1012.70 1012.75 1013.12 1013.72 1013.88 1013.75 1014.19 1014.30 1014.43 1015.66 1016.16 1016.58
1004.08 1004.24 1004.28 1003.81 1003.57 1003.61 1003.64 1003.59 1003.42 1003.54 1003.34 1003.38 1003.41 1003.96 1004.10 1004.59 1005.01 1005.43 1005.67 1006.04 1006.39 1007.07 1007.89 1008.33 1008.80 1009.28 1009.74 1010.14 1010.55 1011.09 1011.61 1012.14 1012.24 1012.81 1013.31 1013.43 1013.46 1013.88 1013.83 1014.64 1014.94 1015.56 1015.96
1003.52 1003.67 1003.67 1003.39 1003.37 1003.43 1003.42 1003.51 1003.49 1003.22 1003.02 1003.70 1003.77 1003.89 1004.08 1003.92 1004.62 1004.82 1005.11 1005.86 1006.36 1006.93 1006.96 1007.46 1008.02 1008.43 1008.75 1009.15 1009.61 1010.04 1010.62 1011.01 1011.78 1012.17 1012.64 1013.62 1013.80 1013.78 1013.78 1014.00 1014.50 1015.22 1015.23
1002.91 1003.32 1003.56 1003.46 1003.41 1003.23 1003.04 1003.02 1002.93 1002.79 1002.87 1002.92 1002.58 1003.18 1003.81 1004.29 1004.38 1004.42 1005.38 1006.32 1007.20 1006.94 1006.39 1006.54 1006.61 1006.88 1007.30 1007.81 1008.34 1008.86 1009.55 1010.21 1010.98 1011.59 1012.14 1013.13 1012.97 1013.11 1013.61 1013.57 1014.00 1014.63 1014.80
1002.60 1002.94 1003.03 1002.94 1002.61 1002.65 1002.78 1002.83 1002.71 1002.60 1002.49 1002.31 1002.10 1003.38 1003.85 1004.25 1004.36 1004.53 1005.41 1006.01 1006.21 1006.31 1005.77 1005.69 1005.75 1005.98 1006.24 1006.68 1007.25 1007.80 1008.43 1009.24 1009.78 1010.68 1011.34 1011.85 1012.71 1013.19 1013.18 1013.15 1013.40 1013.74 1014.30
1001.78 1002.23 1002.29 1002.28 1002.39 1002.45 1002.27 1002.09 1001.91 1001.78 1001.63 1001.25 1001.33 1001.95 1003.35 1004.32 1003.84 1004.17 1004.63 1005.30 1005.45 1005.15 1004.97 1004.97 1004.99 1005.05 1005.12 1005.67 1006.08 1006.78 1007.71 1008.47 1009.02 1009.70 1010.34 1011.05 1011.76 1011.94 1012.42 1012.50 1012.88 1013.04 1013.44
1000.96 1001.57 1001.80 1001.86 1001.96 1001.95 1001.67 1001.62 1001.59 1001.37 1001.08 1000.85 1000.50 1000.81 1001.13 1001.76 1002.48 1003.04 1003.56 1003.72 1003.89 1003.95 1004.05 1004.17 1004.30 1004.41 1004.58 1004.88 1005.28 1005.88 1006.65 1007.12 1007.86 1008.38 1009.09 1010.09 1010.52 1011.19 1011.49 1012.32 1012.56 1012.50 1012.37
1000.82 1001.42 1001.51 1001.38 1001.43 1001.42 1001.12 1001.01 1001.04 1000.87 1000.56 1000.21 1000.03 1000.03 1000.61 1001.05 1001.39 1001.33 1001.98 1002.17 1002.46 1002.81 1003.10 1003.39 1003.45 1003.57 1003.65 1003.98 1004.33 1004.90 1005.54 1006.11 1006.76 1007.35 1008.03 1008.92 1009.95 1010.23 1010.91 1011.92 1012.11 1011.94 1011.77
1001.70 1001.72 1001.32 1001.09 1000.90 1000.77 1000.67 1000.51 1000.34 1000.33 1000.10 999.84 999.62 999.62 1000.31 1000.10 1000.20 1000.33 1000.62 1000.78 1001.29 1001.82 1002.22 1002.44 1002.58 1002.73 1002.94 1003.18 1003.45 1003.80 1004.52 1004.88 1005.39 1006.15 1007.28 1008.45 1009.68 1010.11 1010.42 1011.63 1011.78 1011.48 1010.44
1001.30 1000.82 1000.41 1000.20 1000.14 1000.02 999.89 999.68 999.62 999.87 999.86 999.36 998.92 998.68 998.53 998.75 998.85 998.56 998.84 999.55 1000.07 1000.47 1001.06 1001.37 1001.64 1001.84 1002.03 1002.37 1002.75 1003.04 1003.53 1003.97 1004.81 1005.78 1006.64 1007.71 1008.79 1009.54 1010.23 1010.90 1010.37 1009.59 1009.48
1000.51 1000.05 999.91 999.75 999.54 999.35 999.17 999.04 999.14 999.39 999.33 998.78 998.39 998.16 997.82 997.84 997.97 998.19 998.02 998.45 998.93 999.42 1000.01 1000.48 1000.76 1000.94 1001.19 1001.47 1001.80 1002.21 1002.70 1003.58 1004.41 1005.25 1005.97 1006.92 1007.79 1008.55 1009.53 1009.55 1009.41 1008.70 1008.54
999.98 999.65 999.60 999.59 999.28 999.00 998.81 998.76 998.98 999.15 998.85 998.61 998.62 998.44 998.30 997.36 997.28 997.84 997.87 997.96 998.40 999.07 999.60 999.87 1000.02 1000.27 1000.46 1000.73 1001.08 1001.37 1002.24 1003.04 1003.80 1004.40 1005.08 1006.04 1006.80 1007.77 1008.14 1008.54 1008.31 1007.94 1007.54
Thickness
5834 5833 5827 5823 5821 5817 5815 5815 5814 5813 5812 5808 5804 5801 5798 5795 5795 5794 5794 5795 5792 5790 5787 5784 5783 5783 5782 5782 5780 5779 5777 5776 5766 5771 5774 5762 5756 5753 5748 5743 5738 5732 5731
5839 5834 5832 5827 5823 5819 5816 5817 5816 5813 5813 5811 5809 5805 5802 5798 5797 5795 5793 5795 5791 5789 5787 5784 5780 5781 5781 5782 5780 5779 5777 5776 5767 5759 5762 5758 5756 5752 5747 5745 5741 5735 5724
5843 5836 5832 5827 5823 5820 5818 5817 5818 5815 5812 5811 5809 5806 5803 5802 5800 5798 5796 5794 5794 5792 5791 5787 5783 5780 5779 5780 5781 5780 5777 5775 5770 5760 5755 5756 5750 5746 5739 5740 5740 5739 5730
5843 5839 5831 5828 5825 5824 5823 5819 5816 5816 5814 5810 5807 5806 5806 5804 5802 5800 5799 5797 5795 5794 5792 5791 5788 5783 5778 5777 5775 5772 5771 5767 5762 5756 5750 5750 5750 5746 5737 5729 5729 5734 5731
5832 5832 5822 5821 5821 5821 5821 5820 5817 5815 5813 5814 5811 5807 5806 5805 5804 5801 5800 5798 5795 5793 5793 5791 5788 5785 5782 5779 5775 5772 5769 5764 5759 5750 5744 5743 5742 5741 5737 5733 5721 5725 5729
5816 5809 5794 5803 5806 5810 5810 5813 5813 5808 5810 5808 5808 5808 5805 5808 5809 5805 5803 5799 5796 5792 5788 5789 5789 5785 5781 5778 5774 5773 5773 5766 5758 5753 5747 5736 5738 5738 5735 5732 5730 5717 5710
5803 5796 5802 5799 5800 5793 5802 5797 5801 5802 5803 5802 5803 5805 5805 5807 5805 5805 5804 5802 5798 5794 5790 5788 5787 5785 5778 5771 5767 5765 5763 5761 5759 5753 5743 5740 5738 5738 5735 5726 5724 5724 5715
5798 5797 5793 5797 5790 5788 5801 5803 5793 5789 5794 5799 5802 5803 5804 5807 5806 5803 5800 5800 5797 5794 5792 5790 5786 5782 5776 5767 5759 5756 5754 5751 5749 5751 5740 5733 5732 5739 5734 5726 5720 5716 5715
5786 5788 5791 5790 5787 5787 5788 5800 5780 5772 5790 5794 5797 5800 5801 5806 5805 5799 5793 5793 5793 5790 5788 5787 5785 5778 5773 5761 5751 5741 5739 5738 5739 5738 5734 5726 5723 5725 5729 5719 5710 5702 5698
5791 5789 5788 5784 5781 5785 5787 5787 5785 5783 5789 5795 5795 5797 5799 5801 5803 5799 5792 5786 5782 5781 5783 5783 5779 5771 5761 5753 5747 5736 5730 5732 5726 5727 5722 5716 5713 5708 5709 5710 5705 5694 5691
5786 5785 5784 5783 5781 5781 5781 5782 5780 5780 5786 5789 5789 5788 5790 5797 5796 5791 5783 5782 5782 5775 5773 5770 5770 5761 5755 5747 5743 5734 5729 5726 5721 5716 5713 5705 5704 5700 5698 5698 5695 5688 5685
5775 5770 5769 5773 5771 5770 5768 5767 5768 5770 5770 5773 5775 5779 5784 5786 5783 5780 5772 5776 5779 5772 5768 5765 5763 5754 5749 5743 5734 5728 5720 5714 5711 5703 5699 5695 5689 5692 5692 5692 5686 5681 5684
5755 5757 5755 5762 5764 5764 5761 5760 5758 5760 5759 5759 5760 5766 5773 5775 5775 5768 5765 5767 5767 5766 5764 5760 5756 5746 5739 5733 5725 5719 5712 5706 5701 5695 5688 5681 5680 5675 5678 5679 5679 5667 5673
5745 5741 5740 5741 5747 5749 5751 5753 5754 5755 5757 5757 5753 5754 5759 5761 5759 5758 5755 5756 5755 5755 5753 5751 5747 5740 5733 5727 5718 5712 5706 5699 5689 5683 5674 5668 5665 5662 5660 5666 5667 5656 5657
5730 5728 5728 5731 5734 5736 5740 5744 5747 5752 5751 5749 5751 5748 5748 5751 5753 5753 5751 5748 5749 5746 5741 5737 5734 5730 5722 5715 5711 5707 5699 5688 5682 5674 5661 5657 5657 5655 5654 5657 5651 5651 5651
5712 5711 5714 5719 5724 5726 5727 5730 5737 5737 5742 5743 5746 5745 5748 5747 5746 5744 5744 5741 5738 5734 5730 5727 5723 5720 5717 5711 5705 5699 5692 5684 5678 5666 5654 5648 5647 5647 5650 5647 5648 5647 5646
5700 5701 5700 5703 5706 5709 5712 5712 5712 5724 5726 5724 5727 5729 5731 5737 5735 5734 5735 5730 5724 5721 5725 5721 5717 5714 5712 5707 5701 5696 5688 5684 5673 5665 5656 5643 5641 5640 5642 5644 5643 5639 5642
5686 5683 5683 5687 5690 5694 5699 5701 5704 5707 5712 5719 5722 5722 5720 5719 5719 5721 5715 5712 5706 5708 5716 5715 5714 5713 5710 5706 5699 5693 5686 5679 5670 5664 5654 5645 5642 5639 5637 5640 5641 5636 5636
5667 5668 5671 5676 5682 5683 5685 5686 5691 5695 5699 5706 5712 5700 5701 5702 5702 5702 5697 5701 5701 5698 5704 5707 5707 5705 5704 5700 5694 5689 5683 5675 5671 5663 5654 5649 5643 5638 5638 5639 5639 5636 5632
5655 5654 5658 5663 5666 5667 5673 5677 5682 5686 5691 5700 5703 5699 5689 5688 5698 5696 5691 5687 5690 5693 5695 5697 5697 5696 5697 5694 5692 5685 5676 5670 5667 5660 5654 5648 5643 5644 5637 5638 5634 5632 5631
5639 5641 5645 5651 5653 5655 5661 5665 5669 5674 5679 5686 5694 5696 5693 5691 5693 5690 5685 5684 5685 5687 5687 5686 5687 5686 5685 5685 5684 5679 5673 5669 5663 5659 5653 5647 5644 5640 5637 5629 5627 5628 5633
5626 5625 5631 5638 5643 5645 5650 5655 5659 5663 5669 5673 5682 5687 5680 5681 5682 5688 5684 5682 5681 5680 5678 5677 5677 5677 5679 5677 5675 5673 5669 5664 5660 5657 5652 5646 5638 5638 5633 5623 5620 5622 5627
5604 5607 5617 5625 5631 5635 5639 5643 5647 5651 5656 5662 5668 5673 5665 5671 5674 5677 5678 5677 5675 5672 5670 5669 5670 5670 5670 5671 5671 5669 5663 5663 5661 5656 5648 5639 5629 5625 5618 5611 5612 5616 5626
5600 5606 5612 5617 5621 5627 5631 5636 5641 5639 5643 5651 5658 5662 5668 5668 5669 5675 5676 5673 5671 5670 5666 5664 5664 5665 5665 5665 5663 5663 5661 5659 5655 5648 5641 5634 5625 5618 5611 5604 5611 5621 5621
5603 5608 5611 5615 5618 5622 5627 5631 5633 5632 5635 5643 5649 5653 5658 5660 5661 5661 5668 5666 5667 5664 5660 5658 5659 5660 5660 5660 5659 5658 5656 5651 5646 5639 5633 5627 5620 5614 5603 5606 5608 5616 5616
5600 5605 5607 5609 5613 5617 5620 5622 5622 5622 5627 5632 5633 5637 5641 5651 5655 5652 5655 5655 5655 5653 5651 5652 5653 5654 5655 5654 5653 5652 5647 5642 5637 5634 5628 5622 5616 5611 5605 5600 5601 5604 5611